Red Bluff, CA

2:19 AM PDT on June 28, 2017 (GMT -0700)
Red Bluff Municipal

Weather History for KRBL - May, 2013

Change the Weather History Date:

Thursday, May 9, 2013

  Actual Average Record
Temperature  
Mean Temperature 74 °F -  
Max Temperature 90 °F 78 °F 98 °F (1936)
Min Temperature 59 °F 53 °F 37 °F (2003)
Cooling Degree Days 10    
Growing Degree Days 24 (Base 50)    
Moisture  
Dew Point 52 °F    
Average Humidity 51    
Maximum Humidity 82    
Minimum Humidity 13    
Precipitation  
Precipitation 0.00 in - - ()
Sea Level Pressure  
Sea Level Pressure 30.05 in    
Wind  
Wind Speed 5 mph (North)    
Max Wind Speed 8 mph    
Max Gust Speed -    
Visibility 10 miles    
Events      
Averages and records for this station are not official NWS values.
T = Trace of Precipitation, MM = Missing Value Source: NWS Daily Summary

Daily Weather History Graph

Daily Weather History Graph

Search for Another Location

Airport or City:

Trip Planner

Search our weather history database for the weather conditions in past years. The results will help you decide how hot, cold, wet, or windy it might be!

Date:

Astronomy

May. 09, 2013 Rise Set
Actual Time 5:59 AM PDT 8:12 PM PDT
Civil Twilight 5:28 AM PDT 8:42 PM PDT
Nautical Twilight 4:51 AM PDT 9:19 PM PDT
Astronomical Twilight 4:11 AM PDT 10:00 PM PDT
Moon 5:47 AM PDT (5/9) 8:12 PM PDT (5/9)
Length of Visible Light 15h 13m
Length of Day
14h 13m
Waning Crescent, 0% of the Moon is Illuminated
May 9
Waning Crescent
May 9
New
May 17
First Quarter
May 24
Full
May 31
Last Quarter

Hourly Weather History & Observations

Time (PDT) Temp. Dew Point Humidity Pressure Visibility Wind Dir Wind Speed Gust Speed Precip Events Conditions
12:54 AM 63.0 °F 54.0 °F 72% 30.07 in 10.0 mi NW 5.8 mph - N/A   Clear
1:54 AM 61.0 °F 54.0 °F 78% 30.07 in 10.0 mi NW 5.8 mph - N/A   Clear
2:54 AM 60.1 °F 54.0 °F 80% 30.07 in 10.0 mi NNW 3.5 mph - N/A   Mostly Cloudy
3:54 AM 61.0 °F 55.0 °F 81% 30.08 in 10.0 mi NNE 4.6 mph - N/A   Mostly Cloudy
4:54 AM 61.0 °F 54.0 °F 78% 30.08 in 10.0 mi NNW 5.8 mph - N/A   Overcast
5:54 AM 60.1 °F 54.0 °F 80% 30.08 in 10.0 mi Calm Calm - N/A   Scattered Clouds
6:54 AM 59.0 °F 53.6 °F 82% 30.10 in 10.0 mi NNW 6.9 mph - N/A   Clear
7:54 AM 64.0 °F 54.0 °F 70% 30.11 in 10.0 mi North 5.8 mph - N/A   Clear
8:54 AM 68.0 °F 54.0 °F 61% 30.10 in 10.0 mi NNW 6.9 mph - N/A   Clear
9:54 AM 71.6 °F 53.6 °F 53% 30.10 in 10.0 mi NE 5.8 mph - N/A   Clear
10:54 AM 75.0 °F 53.1 °F 46% 30.08 in 10.0 mi Variable 4.6 mph - N/A   Clear
11:54 AM 80.1 °F 52.0 °F 38% 30.07 in 10.0 mi NE 6.9 mph - N/A   Clear
12:54 PM 82.9 °F 51.1 °F 33% 30.05 in 10.0 mi North 6.9 mph - N/A   Clear
1:54 PM 84.9 °F 50.0 °F 30% 30.03 in 10.0 mi North 8.1 mph - N/A   Clear
2:54 PM 86.0 °F 48.0 °F 27% 30.01 in 10.0 mi Variable 3.5 mph - N/A   Clear
3:54 PM 88.0 °F 46.9 °F 24% 29.99 in 10.0 mi Calm Calm - N/A   Clear
4:54 PM 88.0 °F 45.0 °F 22% 29.97 in 10.0 mi NW 3.5 mph - N/A   Clear
5:54 PM 88.0 °F 46.9 °F 24% 29.96 in 10.0 mi Variable 3.5 mph - N/A   Clear
6:54 PM 87.1 °F 48.0 °F 26% 29.96 in 10.0 mi Variable 5.8 mph - N/A   Clear
7:54 PM 82.9 °F 50.0 °F 32% 29.96 in 10.0 mi South 5.8 mph - N/A   Clear
8:54 PM 75.9 °F 57.0 °F 52% 30.00 in 10.0 mi SE 8.1 mph - N/A   Clear
10:54 PM 71.6 °F 57.2 °F 60% 30.06 in 10.0 mi SSE 4.6 mph - N/A   Clear
11:54 PM 70.0 °F 57.0 °F 63% 30.07 in 10.0 mi Calm Calm - N/A   Clear